[[{"header":{"parameterUnit":"m.s-1","parameterCategory":2,"la1":30.2992,"la2":30.254,"lo1":-89.0895,"lo2":-89.0443,"dy":0.0025,"dx":0.0025,"nx":19,"ny":19,"refTime":"2026-04-19T09:00:00:Z","depth":"0","parameterNumber":2,"parameterNumberName":"U-component_of_CURRENTS"},"data":[0,0,0,0.2782,0.2785,0.2888,0.2889,0.2957,0.2958,0,0,0,0,0,0,0,0,0,0,0,0.2736,0.2737,0.2782,0.2785,0.2888,0.2889,0.2957,0.2958,0,0,0,0,0,0,0,0,0,0,0,0.2736,0.2737,0.2738,0.2786,0.2888,0.2889,0.2957,0.2893,0,0,0,0,0,0,0,0,0,0,0.2799,0.2763,0.2737,0.2738,0.2786,0.2888,0.2889,0.289,0.2897,0.2895,0,0.2915,0,0.2946,0.2962,0.2962,0,0,0,0.2776,0.2758,0.2796,0.2738,0.2787,0.2888,0.2839,0.2894,0.2901,0.2904,0.2916,0.292,0.2947,0.2962,0.2963,0.3026,0.3026,0,0,0.277,0.2745,0.2791,0.28,0.2818,0.2836,0.2842,0.2899,0.2901,0.2916,0.2922,0.2948,0.2963,0.2963,0.3026,0.3026,0,0,0,0.276,0.274,0.2778,0.2797,0.2825,0.2839,0.2847,0.2898,0.2914,0.2923,0.2949,0.2963,0.2964,0.3025,0.3026,0.3056,0,0,0,0.2756,0.2736,0.2775,0.2759,0.2825,0.2871,0.2844,0.2909,0.2917,0.2949,0.2963,0.2964,0.3025,0.3025,0.3055,0.307,0,0,0,0.2731,0.2733,0.2748,0.2758,0.281,0.2871,0.289,0.2912,0.2934,0.2962,0.2964,0.3025,0.3025,0.3054,0.3068,0.3146,0,0,0,0.2696,0.2715,0.2748,0.278,0.2809,0.2875,0.289,0.2924,0.2946,0.2963,0.3025,0.3026,0.3053,0.3067,0.3143,0.3188,0.3203,0,0,0.2699,0.2714,0.2736,0.2769,0.2827,0.286,0.292,0.2946,0.2956,0.2999,0.3002,0.3055,0.3068,0.3145,0.3221,0.3236,0,0,0,0.2724,0.2735,0.2761,0.2804,0.286,0.2916,0.295,0.2975,0.3019,0.2976,0.3059,0.3066,0.3114,0.3136,0.3147,0.3199,0.3028,0.3028,0.3028,0.2665,0.2717,0.2751,0.2819,0.2869,0.2948,0.2999,0.3038,0.3038,0.306,0.3093,0.3174,0.3196,0.3205,0.3258,0.3094,0.3094,0.3094,0.3095,0.2651,0.2669,0.274,0.2791,0.287,0.2926,0.3043,0.3069,0.3167,0.3129,0.3175,0.3168,0.3219,0.3271,0.3097,0.3096,0.3096,0.3096,0.3096,0.2597,0.2614,0.2654,0.273,0.2809,0.2916,0.3029,0.3118,0.319,0.3241,0.3298,0.3298,0.3345,0.3277,0.3277,0.3277,0.3278,0.3278,0.3278,0.2517,0.2563,0.2587,0.2673,0.272,0.2839,0.3026,0.3135,0.3296,0.3344,0.3345,0.3383,0.323,0.3225,0.3285,0.3283,0.3283,0.3282,0.3282,0.2455,0.2477,0.2505,0.2543,0.2661,0.2729,0.2947,0.3204,0.3351,0.344,0.3542,0.3416,0.3421,0.3412,0.3412,0.3517,0.3517,0.3517,0.3517,0.2396,0.2416,0.243,0.2465,0.2552,0.2674,0.2826,0.3086,0.3437,0.3585,0.3668,0.3628,0.3616,0.363,0.3615,0.3618,0.3773,0.3773,0.3773,0.2351,0.2368,0.2347,0.2393,0.2478,0.2597,0.2678,0.2916,0.3474,0.3787,0.3737,0.3726,0.3666,0.3643,0.3656,0.3632,0.3632,0,0]},{"header":{"parameterUnit":"m.s-1","parameterCategory":2,"la1":30.2992,"la2":30.254,"lo1":-89.0895,"lo2":-89.0443,"dy":0.0025,"dx":0.0025,"nx":19,"ny":19,"refTime":"2026-04-19T09:00:00:Z","depth":"0","parameterNumber":3,"parameterNumberName":"V-component_of_CURRENTS"},"data":[0,0,0,-0.0284,-0.0285,-0.0355,-0.0355,-0.0458,-0.0459,0,0,0,0,0,0,0,0,0,0,0,-0.0257,-0.0258,-0.0284,-0.0285,-0.0355,-0.0355,-0.0458,-0.0459,0,0,0,0,0,0,0,0,0,0,0,-0.0257,-0.0258,-0.0258,-0.0285,-0.0354,-0.0355,-0.0457,-0.0405,0,0,0,0,0,0,0,0,0,0,-0.0337,-0.0304,-0.0258,-0.0258,-0.0285,-0.0354,-0.0355,-0.0402,-0.0408,-0.0426,0,-0.0426,0,-0.044,-0.0464,-0.0465,0,0,0,-0.0299,-0.0299,-0.0317,-0.0258,-0.0286,-0.0354,-0.0327,-0.0406,-0.0412,-0.0433,-0.0427,-0.0431,-0.0442,-0.0465,-0.0465,-0.0452,-0.0452,0,0,-0.0295,-0.0276,-0.0312,-0.0321,-0.0291,-0.0325,-0.0329,-0.0409,-0.0411,-0.0428,-0.0434,-0.0443,-0.0466,-0.0466,-0.0453,-0.0452,0,0,0,-0.0275,-0.0273,-0.0289,-0.0316,-0.0325,-0.0326,-0.0331,-0.0408,-0.0413,-0.0435,-0.0445,-0.0466,-0.0467,-0.0454,-0.0453,-0.0337,0,0,0,-0.0273,-0.026,-0.0287,-0.0277,-0.0323,-0.0365,-0.0328,-0.0407,-0.0417,-0.0444,-0.0466,-0.0468,-0.0455,-0.0453,-0.0342,-0.0275,0,0,0,-0.0257,-0.0259,-0.0262,-0.0276,-0.03,-0.0364,-0.0374,-0.041,-0.0422,-0.0465,-0.0468,-0.0456,-0.0454,-0.0346,-0.0283,-0.0231,0,0,0,-0.0242,-0.0213,-0.0262,-0.0229,-0.0299,-0.0286,-0.0374,-0.0384,-0.041,-0.0467,-0.0455,-0.0453,-0.0348,-0.0288,-0.0236,-0.0141,-0.011,0,0,-0.0189,-0.0206,-0.0184,-0.0229,-0.018,-0.0279,-0.0241,-0.0321,-0.0388,-0.0435,-0.0434,-0.034,-0.0284,-0.0232,-0.003,-0.0002,0,0,0,-0.0157,-0.0135,-0.0129,-0.0118,-0.0138,-0.0145,-0.0229,-0.0264,-0.0306,-0.0394,-0.0334,-0.0301,-0.0273,-0.0226,-0.0203,-0.035,-0.0444,-0.0444,-0.0444,-0.0049,-0.0058,-0.0003,-0.001,-0.0009,-0.0057,-0.007,-0.0134,-0.022,-0.0213,-0.0203,-0.0075,-0.0022,-0.0005,-0.0156,-0.0207,-0.0207,-0.0206,-0.0206,0.0062,0.0099,0.0093,0.0137,0.0119,0.013,0.0072,0.0015,0.0,-0.0087,-0.0066,-0.0099,0.0027,-0.0144,-0.0199,-0.02,-0.0201,-0.0202,-0.0202,0.0139,0.0158,0.0172,0.0234,0.0274,0.0238,0.0305,0.0222,0.012,0.0147,0.0162,0.016,0.0004,0.0146,0.0147,0.0148,0.0148,0.0148,0.0149,0.0206,0.0227,0.029,0.0337,0.0385,0.0445,0.0433,0.0439,0.0389,0.0314,0.0313,0.0047,0.0032,0.0012,0.0157,0.0156,0.0155,0.0154,0.0153,0.0303,0.03,0.0406,0.0463,0.0587,0.0731,0.0701,0.0739,0.0692,0.0694,0.0318,0.0387,0.0357,0.0338,0.0325,0.0543,0.0543,0.0543,0.0543,0.0367,0.0372,0.052,0.0633,0.0778,0.0866,0.1069,0.1053,0.0755,0.0564,0.0393,0.031,0.0301,0.0258,0.0241,0.0221,0.0408,0.0407,0.0407,0.0442,0.0476,0.0597,0.0694,0.0859,0.1042,0.1253,0.1316,0.0814,0.0378,0.0171,0.0177,0.0024,0.0021,-0.0077,-0.0089,-0.0134,0,0]}],[{"header":{"parameterUnit":"m.s-1","parameterCategory":2,"la1":30.2992,"la2":30.254,"lo1":-89.0895,"lo2":-89.0443,"dy":0.0025,"dx":0.0025,"nx":19,"ny":19,"refTime":"2026-04-19T09:00:00:Z","depth":"2","parameterNumber":2,"parameterNumberName":"U-component_of_CURRENTS"},"data":[0,0,0,0.2747,0.275,0.2858,0.2858,0.2929,0.2929,0,0,0,0,0,0,0,0,0,0,0,0.2703,0.2704,0.2747,0.275,0.2858,0.2858,0.2929,0.2929,0,0,0,0,0,0,0,0,0,0,0,0.2703,0.2704,0.2705,0.2751,0.2858,0.2858,0.2928,0.2862,0,0,0,0,0,0,0,0,0,0,0.2765,0.273,0.2704,0.2705,0.2751,0.2857,0.2858,0.2859,0.2866,0.2864,0,0.2887,0,0.2916,0.2933,0.2933,0,0,0,0.2741,0.2724,0.2764,0.2705,0.2752,0.2857,0.2807,0.2863,0.2871,0.2872,0.2888,0.2892,0.2917,0.2934,0.2934,0.2995,0.2995,0,0,0.2735,0.2711,0.2759,0.2769,0.2788,0.2803,0.281,0.2868,0.2871,0.2888,0.2894,0.2918,0.2934,0.2934,0.2995,0.2995,0,0,0,0.2724,0.2707,0.2746,0.2765,0.2794,0.2807,0.2814,0.2869,0.2885,0.2895,0.2919,0.2934,0.2935,0.2995,0.2995,0.3027,0,0,0,0.272,0.2701,0.2743,0.2728,0.2793,0.2841,0.2813,0.2881,0.2889,0.2919,0.2934,0.2936,0.2994,0.2995,0.3026,0.3042,0,0,0,0.2697,0.2699,0.2716,0.2727,0.278,0.2841,0.286,0.2883,0.2904,0.2933,0.2936,0.2994,0.2995,0.3025,0.304,0.3114,0,0,0,0.2661,0.2681,0.2715,0.2747,0.2779,0.2844,0.286,0.2894,0.2917,0.2935,0.2994,0.2995,0.3024,0.3038,0.3112,0.3133,0.3146,0,0,0.2664,0.2681,0.2701,0.2735,0.2791,0.2828,0.2887,0.2915,0.2925,0.2968,0.297,0.3026,0.3039,0.3114,0.3163,0.3175,0,0,0,0.2688,0.27,0.2724,0.2768,0.2824,0.2881,0.2918,0.2943,0.2988,0.2946,0.3028,0.3035,0.3081,0.3089,0.3098,0.2997,0.2997,0.2997,0.2997,0.2632,0.2682,0.2715,0.2782,0.2832,0.2912,0.2963,0.3004,0.3005,0.3028,0.3062,0.3141,0.3147,0.3155,0.3062,0.3063,0.3063,0.3063,0.3063,0.262,0.2637,0.2708,0.2758,0.2837,0.2894,0.3009,0.3035,0.3133,0.3097,0.3142,0.3122,0.3167,0.3065,0.3065,0.3065,0.3064,0.3064,0.3064,0.2569,0.2586,0.2626,0.2702,0.2781,0.2886,0.2999,0.3087,0.3158,0.3208,0.3248,0.3247,0.3181,0.3243,0.3244,0.3244,0.3244,0.3245,0.3245,0.2494,0.2539,0.2564,0.265,0.2697,0.2815,0.2998,0.3103,0.3251,0.3293,0.3293,0.3202,0.3196,0.3193,0.3251,0.325,0.3249,0.3249,0.3248,0.2434,0.2457,0.2486,0.2524,0.264,0.2691,0.2915,0.3152,0.3296,0.3373,0.3356,0.3352,0.3354,0.3345,0.3345,0.344,0.344,0.344,0.344,0.2378,0.2398,0.2414,0.2448,0.2533,0.2631,0.2726,0.2886,0.3142,0.3203,0.3211,0.3134,0.3134,0.3118,0.3114,0.3107,0.3139,0.3138,0.3137,0.2335,0.2352,0.2333,0.2378,0.246,0.2537,0.2511,0.2486,0.276,0.3111,0.3013,0.3448,0.3359,0.3349,0.3341,0.3329,0.3324,0,0]},{"header":{"parameterUnit":"m.s-1","parameterCategory":2,"la1":30.2992,"la2":30.254,"lo1":-89.0895,"lo2":-89.0443,"dy":0.0025,"dx":0.0025,"nx":19,"ny":19,"refTime":"2026-04-19T09:00:00:Z","depth":"2","parameterNumber":3,"parameterNumberName":"V-component_of_CURRENTS"},"data":[0,0,0,-0.0178,-0.0179,-0.0253,-0.0253,-0.0354,-0.0355,0,0,0,0,0,0,0,0,0,0,0,-0.0152,-0.0152,-0.0178,-0.0179,-0.0253,-0.0253,-0.0354,-0.0355,0,0,0,0,0,0,0,0,0,0,0,-0.0152,-0.0152,-0.0153,-0.018,-0.0253,-0.0253,-0.0354,-0.03,0,0,0,0,0,0,0,0,0,0,-0.0229,-0.0199,-0.0152,-0.0153,-0.018,-0.0252,-0.0253,-0.0297,-0.0303,-0.0318,0,-0.0321,0,-0.0335,-0.036,-0.0361,0,0,0,-0.0193,-0.0194,-0.0211,-0.0153,-0.018,-0.0252,-0.0223,-0.03,-0.0307,-0.0326,-0.0323,-0.0326,-0.0337,-0.0361,-0.0361,-0.035,-0.0349,0,0,-0.0189,-0.0171,-0.0207,-0.0215,-0.0189,-0.0221,-0.0225,-0.0305,-0.0308,-0.0323,-0.0329,-0.0338,-0.0361,-0.0362,-0.0351,-0.035,0,0,0,-0.0168,-0.0168,-0.0185,-0.0211,-0.0221,-0.0223,-0.0228,-0.0305,-0.0309,-0.033,-0.0339,-0.0362,-0.0363,-0.0352,-0.035,-0.0241,0,0,0,-0.0166,-0.0155,-0.0182,-0.0174,-0.0219,-0.0262,-0.0226,-0.0304,-0.0313,-0.0339,-0.0362,-0.0364,-0.0352,-0.0351,-0.0246,-0.018,0,0,0,-0.0151,-0.0154,-0.0159,-0.0173,-0.0198,-0.0261,-0.0271,-0.0306,-0.0318,-0.0361,-0.0364,-0.0353,-0.0351,-0.025,-0.0188,-0.0139,0,0,0,-0.0137,-0.011,-0.0158,-0.0128,-0.0197,-0.0186,-0.0271,-0.0282,-0.0308,-0.0362,-0.0352,-0.0351,-0.0251,-0.0193,-0.0144,-0.0058,-0.0029,0,0,-0.0087,-0.0104,-0.0083,-0.0127,-0.008,-0.0177,-0.0142,-0.0222,-0.0287,-0.0332,-0.0332,-0.0244,-0.0189,-0.014,0.0046,0.0072,0,0,0,-0.0056,-0.0036,-0.0031,-0.0022,-0.0041,-0.005,-0.0133,-0.0168,-0.0211,-0.0294,-0.0238,-0.0206,-0.018,-0.0138,-0.0117,-0.0342,-0.0342,-0.0342,-0.0343,0.0041,0.0036,0.0088,0.0082,0.0082,0.0034,0.002,-0.0044,-0.0127,-0.0124,-0.0113,0.0007,0.0054,0.0071,-0.012,-0.0119,-0.0119,-0.0118,-0.0118,0.0146,0.0183,0.0178,0.022,0.0203,0.0211,0.0154,0.0097,0.008,-0.0004,0.0016,-0.0018,0.01,-0.0109,-0.0111,-0.0112,-0.0113,-0.0114,-0.0114,0.0218,0.0237,0.0251,0.0311,0.0348,0.0313,0.0378,0.0296,0.0194,0.0219,0.0229,0.0227,0.0071,0.0217,0.0218,0.0218,0.0219,0.0219,0.0219,0.028,0.0301,0.0361,0.0407,0.0454,0.0513,0.0501,0.0505,0.045,0.0374,0.0373,0.012,0.0109,0.009,0.0227,0.0226,0.0225,0.0224,0.0224,0.0371,0.0368,0.0471,0.0527,0.0649,0.0786,0.0759,0.0788,0.074,0.0736,0.0449,0.0441,0.0412,0.0395,0.0382,0.0587,0.0587,0.0587,0.0587,0.0432,0.0437,0.058,0.0692,0.0834,0.0917,0.1094,0.1042,0.0863,0.0718,0.0712,0.0656,0.0639,0.0617,0.0594,0.0582,0.084,0.084,0.0841,0.0503,0.0537,0.0654,0.075,0.0913,0.1085,0.125,0.1195,0.0925,0.0846,0.0706,0.0614,0.0511,0.0493,0.0434,0.0408,0.0378,0,0]}],[{"header":{"parameterUnit":"m.s-1","parameterCategory":2,"la1":30.2992,"la2":30.254,"lo1":-89.0895,"lo2":-89.0443,"dy":0.0025,"dx":0.0025,"nx":19,"ny":19,"refTime":"2026-04-19T09:00:00:Z","depth":"4","parameterNumber":2,"parameterNumberName":"U-component_of_CURRENTS"},"data":[0,0,0,0.1731,0.1735,0.1925,0.1926,0.2098,0.21,0,0,0,0,0,0,0,0,0,0,0,0.1669,0.1671,0.173,0.1735,0.1925,0.1926,0.2098,0.21,0,0,0,0,0,0,0,0,0,0,0,0.1668,0.167,0.1672,0.1736,0.1925,0.1926,0.2098,0.1972,0,0,0,0,0,0,0,0,0,0,0.1796,0.1756,0.167,0.1672,0.1737,0.1924,0.1926,0.1966,0.198,0.1993,0,0.2034,0,0.2069,0.211,0.211,0,0,0,0.1734,0.1746,0.179,0.1672,0.1739,0.1924,0.1839,0.1974,0.1989,0.201,0.2037,0.2044,0.2072,0.2111,0.2112,0.229,0.229,0,0,0.1724,0.1708,0.178,0.18,0.1803,0.1833,0.1845,0.1984,0.2008,0.2037,0.2048,0.2075,0.2112,0.2113,0.2289,0.229,0,0,0,0.1694,0.17,0.1743,0.1792,0.1832,0.1838,0.1852,0.2002,0.2015,0.205,0.2077,0.2113,0.2114,0.2288,0.2289,0.2338,0,0,0,0.1688,0.1683,0.1739,0.1732,0.183,0.1931,0.1867,0.2006,0.2023,0.2076,0.2113,0.2116,0.2287,0.2289,0.2335,0.2344,0,0,0,0.1658,0.168,0.1705,0.173,0.1812,0.193,0.1952,0.2011,0.2039,0.211,0.2116,0.2286,0.2288,0.2332,0.234,0.2404,0,0,0,0.1629,0.1674,0.1705,0.1774,0.181,0.1933,0.1952,0.2059,0.2125,0.2113,0.2287,0.2289,0.2331,0.2337,0.2401,0.2107,0,0,0,0.166,0.1678,0.1717,0.1749,0.1851,0.1906,0.2029,0.2123,0.2156,0.2234,0.2239,0.2336,0.2339,0.2404,0.2227,0,0,0,0,0.1709,0.1736,0.1776,0.1849,0.1936,0.2031,0.2127,0.2176,0.2285,0.2206,0.2362,0.2363,0.2402,0.2223,0.2299,0.2298,0.2298,0.2298,0.2298,0.1705,0.1758,0.1827,0.1908,0.1997,0.2133,0.2218,0.2304,0.2333,0.2395,0.2423,0.253,0.2344,0.2452,0.2453,0.2453,0.2453,0.2453,0.2453,0.1721,0.1746,0.1847,0.1936,0.2048,0.2166,0.2321,0.2375,0.2512,0.2495,0.2532,0.231,0.2459,0.2458,0.2457,0.2456,0.2456,0.2455,0.2455,0.1676,0.1693,0.1776,0.1903,0.2043,0.2193,0.2322,0.2455,0.2552,0.2609,0.2446,0.2576,0.255,0.265,0.265,0.2651,0.2651,0.2651,0.2651,0.1579,0.1657,0.1726,0.1872,0.1962,0.2118,0.2342,0.2431,0.2567,0.2472,0.2642,0.2597,0.2591,0.2562,0.2657,0.2656,0.2655,0.2655,0.2654,0.1497,0.1554,0.1629,0.1715,0.1895,0.1978,0.2225,0.2326,0.2404,0.2392,0.24,0.2411,0.2368,0.2368,0.233,0.2359,0.2356,0.2352,0,0.1429,0.1464,0.1548,0.1629,0.1716,0.1885,0.1924,0.2062,0.2187,0.2108,0.2411,0.2415,0.2422,0.2369,0.2364,0.2315,0,0,0,0.1378,0.1414,0.1436,0.1535,0.1615,0.1732,0.192,0.1901,0.216,0.2156,0.2266,0.2289,0.2519,0.2673,0.2635,0.2627,0.258,0,0]},{"header":{"parameterUnit":"m.s-1","parameterCategory":2,"la1":30.2992,"la2":30.254,"lo1":-89.0895,"lo2":-89.0443,"dy":0.0025,"dx":0.0025,"nx":19,"ny":19,"refTime":"2026-04-19T09:00:00:Z","depth":"4","parameterNumber":3,"parameterNumberName":"V-component_of_CURRENTS"},"data":[0,0,0,0.0181,0.0181,0.0141,0.014,0.0049,0.0048,0,0,0,0,0,0,0,0,0,0,0,0.0196,0.0196,0.0181,0.0181,0.0141,0.014,0.0049,0.0048,0,0,0,0,0,0,0,0,0,0,0,0.0196,0.0196,0.0196,0.0181,0.0141,0.014,0.005,0.0088,0,0,0,0,0,0,0,0,0,0,0.0131,0.0155,0.0196,0.0196,0.0181,0.0141,0.014,0.009,0.0085,0.0059,0,0.006,0,0.0054,0.0042,0.0042,0,0,0,0.0172,0.0159,0.0148,0.0196,0.018,0.0141,0.0156,0.0088,0.0082,0.0053,0.0058,0.0055,0.0053,0.0042,0.0041,-0.0016,-0.0016,0,0,0.0174,0.0185,0.0151,0.0145,0.0178,0.0158,0.0155,0.0085,0.0082,0.0058,0.0053,0.0051,0.0041,0.004,-0.0016,-0.0016,0,0,0,0.0187,0.0187,0.0178,0.0148,0.0145,0.0157,0.0154,0.0085,0.0082,0.0052,0.005,0.0041,0.0039,-0.0016,-0.0016,0.0061,0,0,0,0.0187,0.0194,0.0179,0.0184,0.0147,0.0121,0.0156,0.0087,0.0079,0.0051,0.0041,0.0039,-0.0016,-0.0016,0.0059,0.0115,0,0,0,0.0196,0.0195,0.0193,0.0185,0.0172,0.0122,0.0115,0.0085,0.0078,0.0042,0.0038,-0.0016,-0.0016,0.0057,0.011,0.0132,0,0,0,0.0204,0.0215,0.0194,0.0205,0.0172,0.0163,0.0115,0.0094,0.0068,0.004,-0.0016,-0.0016,0.0056,0.0108,0.0129,0.0166,0,0,0,0.0225,0.0218,0.0226,0.0206,0.0221,0.0167,0.0169,0.011,0.0059,0.0003,0.0001,0.0059,0.011,0.0131,0.0174,0,0,0,0,0.0237,0.0246,0.0245,0.0248,0.0229,0.022,0.0158,0.0127,0.0078,0.0046,0.0041,0.0071,0.0082,0.0094,-0.0015,-0.0015,-0.0015,-0.0015,-0.0015,0.0277,0.0275,0.0301,0.0296,0.0288,0.0247,0.023,0.0173,0.0112,0.01,0.0119,0.0172,0.0186,0.0089,0.0089,0.0089,0.009,0.009,0.009,0.0327,0.0351,0.0351,0.0375,0.0361,0.0353,0.0296,0.0254,0.0223,0.0168,0.0174,0.0156,0.0097,0.0096,0.0095,0.0094,0.0093,0.0093,0.0093,0.0365,0.038,0.0394,0.0435,0.0457,0.0426,0.046,0.0394,0.0306,0.0316,0.0301,0.0223,0.0232,0.0308,0.0309,0.0309,0.0309,0.031,0.031,0.0399,0.0418,0.0462,0.0498,0.0535,0.0572,0.0555,0.0538,0.0449,0.0407,0.0341,0.0245,0.0238,0.0243,0.0315,0.0314,0.0314,0.0313,0.0313,0.0446,0.0454,0.0526,0.0571,0.066,0.0694,0.0688,0.0638,0.0619,0.0562,0.0437,0.0429,0.0406,0.0395,0.0405,0.0527,0.0528,0.0529,0,0.0478,0.0485,0.0586,0.0669,0.0756,0.0768,0.0786,0.075,0.0626,0.0615,0.0593,0.0455,0.0447,0.0421,0.0413,0.0426,0,0,0,0.0511,0.054,0.0617,0.0695,0.0793,0.0796,0.0792,0.0767,0.0646,0.0631,0.0548,0.0543,0.0444,0.0331,0.0277,0.0268,0.0274,0,0]}]]